Theta_e
332 339 337 323 308 308 304 308 313 314 314 319 321 318 318 321 318 311 334 337 338 333 342 345 347 347 346 345 345 346 346 344 344 343 341 339 337 337 336 336 335 335 334 334 334 334 334 334 334
327 333 325 317 304 301 303 311 311 316 319 321 319 318 319 318 328 329 331 338 340 338 341 342 345 347 346 347 347 346 347 344 342 340 339 338 337 336 336 335 335 334 333 332 333 332 333 333 333
327 328 316 310 305 301 303 311 314 317 320 319 317 320 320 320 328 332 337 338 337 337 339 341 344 347 348 347 346 347 346 345 340 339 337 337 337 336 335 335 334 334 333 331 330 330 331 331 331
321 321 316 305 304 307 308 312 317 316 317 320 320 316 323 330 329 336 337 339 333 333 340 341 345 347 348 347 346 346 346 344 341 339 336 336 336 336 335 334 333 332 331 331 330 329 329 330 330
322 317 307 303 305 304 308 314 316 314 315 317 317 315 320 330 337 337 336 338 331 328 340 342 344 345 347 347 346 345 345 344 343 342 339 337 336 335 334 333 333 332 332 330 329 332 331 330 331
312 315 304 302 305 305 309 313 313 313 314 315 312 315 321 331 334 334 336 335 330 328 338 341 339 341 344 346 346 346 345 344 343 341 340 339 337 335 335 334 333 333 333 332 332 332 332 331 330
311 309 304 305 306 305 309 314 310 310 311 312 314 311 322 329 334 335 334 334 330 330 333 340 342 339 336 339 341 343 343 343 342 341 340 339 338 336 336 335 335 334 334 333 334 334 333 332 332
314 310 306 306 305 306 311 313 315 312 311 316 317 310 315 329 335 334 334 333 330 327 329 335 339 340 340 338 335 336 339 339 339 338 336 334 333 334 333 332 333 336 335 335 335 335 333 333 334
319 305 303 305 305 307 312 310 314 313 313 315 317 318 329 333 333 333 332 332 330 326 325 327 332 336 337 338 336 332 333 335 334 333 330 330 331 331 331 329 331 335 336 336 335 336 335 334 332
310 303 306 312 310 308 311 311 312 309 311 312 317 323 331 330 329 327 328 328 328 326 325 325 325 328 330 332 335 337 338 337 334 332 331 330 330 330 329 325 327 330 330 332 333 333 332 328 326
310 304 311 310 310 311 311 308 311 308 306 310 313 320 326 326 326 327 328 329 329 330 329 328 328 327 326 326 329 332 332 334 333 332 331 331 330 328 328 327 326 324 321 324 326 326 326 324 323
304 310 311 312 310 309 307 309 307 308 308 313 315 323 324 325 325 326 326 328 330 330 332 332 331 330 328 329 326 326 328 329 330 330 331 329 328 327 327 327 327 327 327 323 324 324 324 324 324
304 307 310 308 308 308 311 308 307 307 310 314 316 320 321 323 325 327 329 330 331 331 333 333 333 332 332 331 330 328 327 327 328 328 329 329 327 326 327 326 326 326 326 325 324 324 323 323 323
306 308 307 307 307 307 306 306 306 308 311 311 313 315 318 320 323 325 325 327 329 331 330 333 333 333 334 334 332 331 330 330 330 329 329 329 328 326 326 326 326 325 325 324 323 322 321 321 322
305 301 303 304 306 304 305 303 303 308 308 309 309 310 309 317 321 321 323 326 328 329 331 331 333 333 333 333 333 333 332 333 332 332 332 330 329 327 325 324 323 324 324 324 322 321 321 320 321
300 301 295 303 304 302 302 298 303 304 303 304 304 304 306 307 305 305 305 306 308 322 329 331 333 333 333 331 332 334 334 334 335 335 335 332 330 328 326 324 324 325 324 322 321 320 319 319 319
298 293 295 297 302 301 300 299 301 304 303 303 303 303 303 301 303 304 305 305 305 307 310 320 330 332 332 332 333 334 335 335 334 334 334 334 333 330 327 325 325 326 324 323 322 321 321 320 320
292 293 296 296 297 297 297 298 299 301 301 299 299 299 299 301 302 304 306 307 307 307 308 309 314 325 332 333 334 335 334 335 334 334 334 334 333 333 331 330 328 328 327 326 325 324 325 325 326
298 295 295 296 298 297 297 297 295 297 297 296 296 297 298 299 303 305 307 307 308 307 308 309 311 316 321 327 329 330 329 331 331 332 333 333 333 332 331 331 330 330 329 329 328 328 326 326 326
298 295 294 296 297 296 295 291 293 295 296 296 296 296 297 299 301 304 305 307 308 308 309 310 311 315 322 324 327 330 329 330 331 331 332 333 332 332 331 329 329 329 328 328 327 326 325 325 325
297 295 294 292 294 295 294 292 291 294 295 297 298 298 298 298 299 301 301 302 304 304 305 307 309 312 313 321 325 326 327 327 326 327 328 330 331 331 331 330 329 328 327 326 326 326 324 322 323
293 299 297 293 290 287 293 285 290 292 292 293 294 294 295 297 298 300 300 300 301 302 304 304 305 306 309 311 314 315 316 316 319 318 318 320 321 322 323 322 323 324 326 325 325 326 324 323 320
295 300 297 296 292 291 289 286 287 292 289 290 292 294 294 295 296 297 298 299 300 301 301 302 302 303 304 304 305 306 307 310 310 311 311 313 315 315 310 311 315 317 319 319 320 319 318 320 319
299 296 295 294 291 283 289 287 287 287 289 289 292 293 294 295 296 297 298 298 297 298 298 298 298 299 301 301 300 300 300 302 302 302 303 304 306 307 305 306 307 309 310 311 315 318 318 318 318
296 290 282 280 280 281 290 286 285 288 289 290 291 291 293 294 294 295 295 295 295 295 295 296 296 295 297 298 297 297 297 298 298 299 299 299 300 300 300 301 302 303 304 306 307 308 311 315 315
291 290 282 277 278 278 287 282 282 288 290 291 292 292 292 292 294 294 294 294 294 295 294 294 294 294 295 295 295 295 295 295 296 296 296 296 296 297 298 299 299 300 301 302 303 303 305 307 308
289 286 290 282 279 279 280 281 287 288 288 288 289 289 289 291 293 293 294 293 292 293 293 292 292 292 293 293 294 293 293 293 293 294 294 294 294 295 295 296 296 298 299 299 299 300 300 301 302
292 292 282 284 275 274 278 278 279 283 285 287 287 287 288 290 292 293 292 292 292 292 292 292 291 291 291 292 292 292 291 291 291 292 291 291 292 292 293 293 294 295 296 296 296 295 295 295 296
288 286 288 287 283 278 275 277 286 285 286 285 286 288 288 289 290 291 291 291 291 291 290 290 290 290 289 290 291 290 289 289 289 289 289 289 290 290 291 292 293 293 293 293 292 291 292 291 292
292 288 289 280 279 281 281 277 288 287 287 287 287 288 288 289 290 290 290 290 290 289 289 288 288 288 288 288 289 288 287 287 286 286 287 287 287 288 289 290 290 291 291 290 288 288 288 288 290
Wind_Speed
4 6 7 2 3 4 0 2 2 7 5 5 8 7 12 10 6 5 4 5 20 17 14 12 13 13 12 11 10 9 10 10 11 11 10 9 9 8 9 8 8 8 8 7 8 8 9 9 10
6 8 3 4 4 3 1 2 5 11 7 8 3 1 8 10 8 7 7 9 16 16 13 12 11 14 12 11 9 10 11 10 10 9 9 9 8 7 8 7 6 6 6 6 6 6 6 6 7
6 6 3 4 6 2 2 9 11 9 6 4 3 4 6 5 9 8 11 12 16 14 12 13 11 13 12 11 7 11 11 10 9 9 8 7 7 6 6 5 5 4 4 4 4 4 3 4 5
4 2 5 3 5 5 7 3 12 8 3 6 6 8 7 9 3 8 10 13 13 12 12 15 12 11 12 11 9 7 9 9 8 7 6 5 5 5 4 3 2 2 2 2 2 2 2 3 4
2 4 5 6 4 7 6 7 6 6 7 6 4 6 7 6 9 10 8 10 10 9 13 12 12 11 9 11 10 8 8 7 6 5 5 5 5 4 3 2 1 0 2 2 0 0 2 3 4
3 3 6 6 2 8 7 3 1 4 6 6 2 6 5 4 7 8 7 9 9 10 12 11 10 10 10 11 9 8 9 8 6 5 4 4 3 3 3 3 3 4 4 3 2 3 4 5 5
5 5 11 2 2 4 8 2 1 3 4 9 5 4 7 9 7 6 6 8 8 9 9 9 8 7 7 8 8 8 8 7 6 5 4 3 3 4 5 6 6 6 7 6 7 6 7 7 8
3 3 8 3 10 5 4 4 6 9 6 3 4 6 7 9 11 7 7 6 5 8 7 8 8 7 6 5 7 7 6 6 6 7 8 5 4 5 6 7 7 8 9 9 8 7 8 9 10
3 3 7 6 3 8 6 7 3 2 7 8 6 8 12 13 9 7 3 4 5 7 6 7 7 7 7 7 8 6 6 9 8 6 8 5 4 6 9 9 11 9 8 8 10 10 9 9 9
3 4 3 9 10 7 6 3 7 4 8 8 8 7 13 11 9 8 7 3 4 7 6 7 7 6 6 5 7 6 7 5 5 5 6 5 6 6 4 2 8 7 8 9 10 12 11 8 4
4 7 6 9 7 9 6 2 3 3 3 8 12 9 9 8 8 7 7 6 4 6 6 6 6 6 6 3 4 3 3 4 4 7 7 6 5 4 4 3 3 4 7 4 7 7 6 7 6
4 8 6 6 4 3 4 4 4 7 5 10 10 12 8 9 7 7 7 7 8 7 6 6 7 6 6 4 3 3 3 3 3 4 6 4 2 3 4 3 5 5 4 6 6 4 6 7 7
5 10 4 6 3 6 3 4 4 5 9 10 8 8 9 9 9 8 8 8 7 9 8 8 6 5 6 6 3 5 4 4 5 5 5 4 4 4 4 4 4 4 4 4 5 5 5 6 6
4 8 3 4 4 3 3 5 2 6 6 7 5 8 8 7 7 7 4 5 6 7 5 5 6 5 4 5 7 4 4 4 5 5 5 7 5 4 4 4 4 4 4 5 4 5 5 5 5
1 1 2 4 4 3 2 1 3 8 5 6 7 10 8 7 6 6 4 5 6 4 6 6 7 7 7 5 4 4 4 4 4 4 6 6 5 6 6 4 4 5 4 6 5 5 5 5 6
5 0 3 8 6 1 2 5 7 4 4 2 7 10 10 10 12 12 11 11 10 7 1 6 5 7 8 5 4 5 4 4 4 4 4 6 6 6 5 4 4 5 4 4 4 4 5 5 5
6 6 11 2 3 2 4 3 4 6 5 6 8 10 10 12 12 10 10 10 10 10 11 8 2 5 6 6 6 6 6 4 4 3 4 5 5 6 5 4 4 5 4 4 4 4 5 4 5
9 11 12 10 2 3 4 2 5 9 8 10 11 11 10 10 10 9 10 10 11 11 10 11 10 6 3 3 3 3 3 3 3 4 3 4 3 5 4 4 5 5 5 5 4 5 5 7 7
10 10 6 7 2 2 4 1 12 12 12 11 11 10 10 10 9 9 11 9 11 11 11 11 11 11 6 1 3 1 1 2 2 3 6 5 4 5 5 3 4 4 4 5 5 5 6 5 3
8 6 7 3 4 2 5 13 10 10 8 9 10 9 9 10 11 12 12 13 12 12 12 12 12 12 9 7 3 3 3 3 0 1 4 3 5 5 4 4 4 4 4 6 5 4 5 5 4
12 13 8 11 4 8 8 3 1 7 9 11 10 9 10 10 10 11 13 14 13 14 13 14 14 13 13 13 7 5 4 4 6 6 6 5 7 6 5 5 5 5 4 5 6 5 6 7 4
13 14 7 8 6 6 4 3 6 9 9 10 9 8 9 10 11 12 12 14 14 13 13 14 15 16 15 18 12 12 7 7 6 6 6 7 9 9 11 12 10 7 4 4 5 5 5 4 8
6 11 7 3 4 4 3 4 3 9 10 9 7 8 8 9 10 12 12 12 12 12 12 11 13 16 16 16 15 11 12 7 8 9 10 11 10 12 14 14 12 11 8 9 8 8 6 4 6
11 5 12 7 2 3 8 5 4 4 12 8 8 9 8 9 10 10 9 10 11 11 12 13 13 14 14 14 14 14 13 12 10 10 9 8 8 9 12 13 11 11 11 11 10 10 10 8 8
13 15 5 3 2 2 10 4 4 9 10 10 9 8 7 7 7 9 11 11 11 12 12 11 12 14 14 13 14 14 12 11 11 10 8 9 8 8 11 12 12 10 11 11 10 10 11 10 10
10 11 6 5 6 5 8 5 3 8 7 8 9 7 7 8 7 9 9 8 9 10 11 11 12 13 13 12 12 10 11 7 7 9 7 7 7 8 11 11 10 11 12 11 11 8 8 10 10
5 8 2 7 2 4 6 4 3 7 7 8 9 7 7 7 7 7 7 7 7 7 9 8 9 9 10 10 9 10 10 11 9 10 9 8 9 9 11 12 12 12 11 11 12 8 10 10 10
3 7 4 2 6 5 4 6 6 10 10 8 8 7 7 7 7 7 6 6 5 6 6 7 7 8 7 8 8 8 9 10 9 9 11 11 10 12 12 13 13 13 12 13 12 10 11 12 9
1 2 1 4 2 4 5 0 10 14 11 10 8 7 6 7 6 6 6 5 6 6 6 7 7 8 9 8 7 7 8 9 8 8 9 10 10 12 12 12 12 13 13 12 12 13 13 13 12
4 2 4 4 3 2 4 2 4 8 10 9 8 6 5 5 7 6 6 6 6 7 6 7 6 7 8 8 7 8 9 9 10 9 10 10 10 10 11 11 11 11 12 11 13 14 14 15 14
Wind_Direction
289 232 237 278 249 218 335 223 53 91 102 41 43 26 78 46 20 101 158 102 120 127 133 139 140 140 143 141 144 140 134 123 112 111 108 105 104 100 93 90 83 81 79 77 74 68 60 54 49
294 232 267 266 252 342 81 159 104 78 74 83 105 78 83 84 75 124 100 129 121 128 140 140 137 144 144 141 143 155 146 131 123 119 117 114 109 106 99 90 87 83 81 79 78 73 63 54 49
293 284 269 211 235 128 45 289 92 85 91 150 129 17 28 77 96 136 112 135 120 129 155 135 139 145 144 142 140 142 128 126 126 123 124 126 123 117 109 108 100 94 88 79 74 67 59 47 38
308 216 261 271 311 157 145 167 109 110 87 352 343 88 83 23 81 101 146 136 126 140 124 137 141 144 151 148 144 133 129 136 137 131 129 127 118 111 114 107 92 94 121 100 70 53 33 11 3
216 252 258 222 211 103 84 13 123 160 141 134 355 99 83 59 78 121 149 129 127 132 123 136 141 145 145 150 151 154 151 146 140 141 144 142 136 144 158 158 159 276 311 309 354 296 310 307 313
294 229 265 240 197 98 86 97 263 121 86 88 216 102 76 112 104 124 143 127 136 122 131 137 145 148 144 159 164 170 161 151 147 153 159 164 182 202 212 219 239 246 253 262 278 273 278 285 291
239 288 265 50 34 139 108 157 136 110 136 52 8 44 115 98 98 99 121 114 134 115 122 138 152 150 148 152 148 153 154 154 161 171 178 213 222 234 236 246 250 252 254 256 257 264 256 267 277
318 283 291 199 175 112 124 134 29 46 61 114 14 26 126 114 87 75 7 127 148 120 136 145 152 156 162 164 170 169 173 174 184 193 192 202 239 249 242 243 253 241 249 257 263 266 270 271 275
286 285 266 265 165 111 148 113 351 15 117 57 58 65 106 106 109 107 154 248 149 131 151 150 159 168 175 170 177 177 198 208 199 213 247 251 234 242 227 212 227 226 239 258 268 272 269 268 272
223 233 327 301 13 112 154 165 138 183 126 119 95 93 107 115 134 144 157 214 78 144 173 159 161 170 182 193 142 175 191 217 200 212 216 209 229 238 224 147 207 215 232 250 259 259 258 262 251
217 247 309 84 2 347 118 67 52 236 161 114 150 139 127 132 141 157 166 175 197 274 168 170 168 174 177 200 154 178 192 187 209 210 211 207 218 230 219 207 198 218 224 228 238 241 235 232 233
258 253 285 91 26 349 116 68 152 43 99 66 61 129 130 151 159 175 173 173 182 215 254 181 176 179 185 178 175 203 192 209 203 226 221 205 227 250 257 237 223 199 207 203 227 228 229 224 238
240 284 107 58 47 43 23 68 45 136 122 92 99 123 155 154 163 183 175 182 197 191 199 197 198 209 187 183 207 200 211 196 207 219 224 201 216 231 238 242 238 236 234 225 233 237 244 247 243
353 250 216 133 150 87 299 110 296 65 96 99 129 96 78 91 143 140 153 169 192 180 203 213 195 198 270 201 195 222 208 221 201 211 220 214 204 220 233 239 241 240 232 239 235 235 242 249 246
24 275 242 206 198 132 262 215 230 125 77 129 128 119 82 85 89 55 72 176 179 205 192 198 179 182 223 270 275 215 232 227 222 222 219 230 220 220 237 249 246 240 239 242 248 260 258 260 253
207 312 210 197 145 150 220 219 91 91 111 116 78 95 100 78 50 27 19 12 9 2 217 197 187 186 177 183 273 284 241 230 235 239 236 223 221 228 240 244 248 245 248 245 243 240 252 248 244
216 187 245 100 347 109 202 169 99 49 52 94 91 77 65 60 53 37 27 13 10 11 7 353 272 196 193 183 203 244 254 242 251 253 243 258 238 218 223 242 258 260 252 245 244 257 240 251 258
185 203 204 236 62 358 192 154 113 50 33 41 58 66 64 67 51 48 38 33 29 17 12 7 359 346 223 211 228 240 289 303 331 329 320 294 283 273 257 245 257 260 265 263 255 255 254 259 266
212 197 214 44 354 269 202 228 48 41 40 40 53 50 43 64 57 41 43 39 38 26 25 21 11 357 0 30 287 318 349 328 299 302 300 319 321 337 329 321 292 283 280 276 267 271 276 279 279
240 215 198 140 108 289 80 47 50 52 41 61 68 60 50 49 45 44 40 34 37 34 29 26 23 16 8 1 10 41 41 35 103 304 305 312 307 287 289 288 288 286 290 291 289 282 283 265 254
197 233 201 150 133 64 81 353 146 84 65 56 57 64 68 59 53 49 45 39 30 29 28 29 23 25 23 7 14 13 36 12 24 18 12 2 3 340 306 302 290 287 269 275 279 274 275 286 277
190 223 72 112 158 176 193 207 248 126 99 79 65 53 52 57 55 49 45 41 31 25 20 34 29 25 23 22 28 35 35 27 17 17 3 9 5 3 14 7 357 347 325 298 281 287 272 283 293
211 160 153 52 16 121 250 139 158 140 113 95 84 74 64 63 59 53 46 47 36 27 27 27 34 34 27 31 29 24 27 20 18 15 14 9 8 14 17 5 360 353 351 344 338 324 311 292 293
118 97 101 92 6 212 188 174 203 170 131 104 89 73 58 57 56 55 53 50 42 33 28 25 32 33 29 32 33 32 27 19 22 14 11 9 7 5 10 0 357 353 352 348 341 333 325 317 297
160 154 121 149 201 187 164 142 57 79 76 101 99 80 79 64 54 51 45 41 39 37 31 31 27 32 27 29 32 27 23 23 22 16 8 8 2 360 2 355 353 351 347 345 343 339 331 329 322
201 181 142 154 170 160 133 179 123 89 96 100 91 86 75 66 59 56 49 47 44 41 37 34 31 28 24 25 28 28 23 21 18 15 7 4 0 351 352 350 350 346 346 345 344 337 335 334 331
205 226 72 103 84 107 145 100 66 136 129 111 108 99 84 77 67 61 52 45 42 41 47 37 38 31 27 23 20 25 19 16 12 9 7 3 355 352 351 350 348 348 349 350 346 342 341 334 335
220 137 84 4 143 155 183 168 166 166 148 145 124 109 85 72 72 70 61 50 47 47 49 44 38 35 19 20 18 20 16 12 6 6 6 2 353 353 350 351 350 348 351 351 356 351 337 339 332
148 152 43 105 130 149 142 225 151 154 154 123 114 97 84 79 81 80 73 67 62 48 44 49 35 28 21 16 6 17 15 7 7 8 2 357 350 351 351 350 348 348 353 352 359 348 342 335 331
341 213 165 130 225 41 90 107 98 117 113 115 118 101 88 105 92 94 87 64 53 42 33 41 35 26 17 5 10 20 14 6 7 2 360 355 351 349 348 348 348 350 350 8 2 348 340 335 335